Terminal Aerodrome Forecast
Issued by NWS

Home | Current Version | Previous Version | Text Only | Print | Product List | Glossary On
Versions: 1 2 3 4 5 6 7 8 9
000
FTUS45 KFGZ 271100
TAFPRC
TAF
KPRC 271120Z 2712/2812 25005KT P6SM SCT050
     FM271700 03008KT P6SM SKC
     FM280200 20008KT P6SM BKN250=

USA.gov is the U.S. government's official web portal to all federal, state and local government web resources and services.